EN

Hourly Weather Althornli

Today, 23 January, Saturday

Time Temperature Precipitation Wind Pressure Humidity
00:00 -1°C° 1.1 mm 2 mps 670 mmHg 98%
01:00 -1°C° 1.1 mm 2 mps 670 mmHg 98%
02:00 -1°C° 1.9 mm 3 mps 671 mmHg 98%
03:00 -3°C° 1.9 mm 4 mps 671 mmHg 98%
04:00 -5°C° 1.9 mm 5 mps 672 mmHg 98%
05:00 -4°C° 0.7 mm 4 mps 672 mmHg 97%
06:00 -4°C° 0.7 mm 3 mps 673 mmHg 97%
07:00 -3°C° 0.7 mm 2 mps 673 mmHg 97%
08:00 -1°C° 0 mm 1 mps 673 mmHg 95%
09:00 0°C° 0 mm 1 mps 673 mmHg 93%
10:00 0°C° 0 mm 1 mps 673 mmHg 92%
11:00 0°C° 0 mm 1 mps 673 mmHg 91%
12:00 +1°C° 0 mm 1 mps 673 mmHg 90%
13:00 +2°C° 0 mm 1 mps 673 mmHg 88%
14:00 +2°C° 0 mm 1 mps 673 mmHg 89%
15:00 +1°C° 0 mm 1 mps 672 mmHg 91%
16:00 +1°C° 0 mm 1 mps 671 mmHg 93%
17:00 0°C° 0 mm 1 mps 671 mmHg 93%
18:00 0°C° 0 mm 1 mps 671 mmHg 93%
19:00 -1°C° 0 mm 1 mps 671 mmHg 93%
20:00 -1°C° 0 mm 1 mps 671 mmHg 91%
21:00 -2°C° 0 mm 1 mps 671 mmHg 89%
22:00 -2°C° 0 mm 1 mps 671 mmHg 87%
23:00 -4°C° 0 mm 1 mps 672 mmHg 85%

Tomorrow, 24 January, Sunday

Time Temperature Precipitation Wind Pressure Humidity
00:00 -4°C° 0 mm 1 mps 672 mmHg 86%
01:00 -4°C° 0 mm 1 mps 672 mmHg 86%
02:00 -5°C° 0.2 mm 2 mps 673 mmHg 88%
03:00 -6°C° 0.2 mm 3 mps 673 mmHg 90%
04:00 -5°C° 0.2 mm 4 mps 673 mmHg 91%
05:00 -5°C° 0.2 mm 3 mps 674 mmHg 93%
06:00 -5°C° 0.2 mm 3 mps 674 mmHg 94%
07:00 -4°C° 0.2 mm 2 mps 675 mmHg 96%
08:00 -4°C° 0.2 mm 2 mps 675 mmHg 94%
09:00 -4°C° 0.2 mm 2 mps 676 mmHg 93%
10:00 -3°C° 0.2 mm 2 mps 676 mmHg 91%
11:00 -3°C° 0 mm 2 mps 676 mmHg 88%
12:00 -2°C° 0 mm 2 mps 676 mmHg 86%
13:00 0°C° 0 mm 1 mps 676 mmHg 83%
14:00 0°C° 0 mm 1 mps 676 mmHg 84%
15:00 -1°C° 0 mm 0 mps 675 mmHg 86%
16:00 -1°C° 0 mm 0 mps 675 mmHg 88%
17:00 -2°C° 0 mm 0 mps 675 mmHg 88%
18:00 -3°C° 0 mm 0 mps 675 mmHg 88%
19:00 -3°C° 0 mm 1 mps 675 mmHg 88%
20:00 -3°C° 0.1 mm 1 mps 675 mmHg 90%
21:00 -3°C° 0.1 mm 1 mps 675 mmHg 91%
22:00 -3°C° 0.1 mm 1 mps 675 mmHg 93%
23:00 -3°C° 0.2 mm 1 mps 676 mmHg 94%

Day after tomorrow, 25 January, Monday

Time Temperature Precipitation Wind Pressure Humidity
00:00 -5°C° 0.2 mm 2 mps 676 mmHg 95%
01:00 -5°C° 0.2 mm 2 mps 676 mmHg 95%
02:00 -5°C° 0.3 mm 2 mps 676 mmHg 95%
03:00 -6°C° 0.3 mm 3 mps 677 mmHg 95%
04:00 -6°C° 0.3 mm 3 mps 677 mmHg 94%
05:00 -6°C° 0.4 mm 3 mps 678 mmHg 94%
06:00 -7°C° 0.4 mm 4 mps 678 mmHg 94%
07:00 -7°C° 0.4 mm 4 mps 679 mmHg 95%
08:00 -7°C° 0.5 mm 4 mps 680 mmHg 94%
09:00 -7°C° 0.5 mm 4 mps 680 mmHg 94%
10:00 -7°C° 0.5 mm 5 mps 681 mmHg 93%
11:00 -6°C° 0.3 mm 5 mps 681 mmHg 91%
12:00 -6°C° 0.3 mm 5 mps 682 mmHg 89%
13:00 -5°C° 0.3 mm 5 mps 682 mmHg 87%
14:00 -5°C° 0.1 mm 4 mps 682 mmHg 87%
15:00 -5°C° 0.1 mm 4 mps 683 mmHg 87%
16:00 -5°C° 0.1 mm 3 mps 683 mmHg 87%
17:00 -5°C° 0.4 mm 3 mps 683 mmHg 89%
18:00 -5°C° 0.4 mm 4 mps 683 mmHg 91%
19:00 -7°C° 0.4 mm 4 mps 684 mmHg 93%
20:00 -7°C° 0.2 mm 4 mps 684 mmHg 92%
21:00 -7°C° 0.2 mm 4 mps 685 mmHg 90%
22:00 -7°C° 0.2 mm 4 mps 685 mmHg 89%
23:00 -7°C° 0.1 mm 4 mps 685 mmHg 89%

26 January, Tuesday

Time Temperature Precipitation Wind Pressure Humidity
00:00 -7°C° 0.1 mm 4 mps 685 mmHg 89%
01:00 -6°C° 0.1 mm 3 mps 686 mmHg 89%
02:00 -6°C° 0.1 mm 3 mps 686 mmHg 90%
03:00 -6°C° 0.1 mm 3 mps 686 mmHg 91%
04:00 -6°C° 0.1 mm 3 mps 686 mmHg 92%
05:00 -6°C° 0.2 mm 3 mps 686 mmHg 93%
06:00 -6°C° 0.2 mm 3 mps 686 mmHg 94%
07:00 -6°C° 0.2 mm 3 mps 687 mmHg 94%
08:00 -6°C° 0.1 mm 3 mps 687 mmHg 94%
09:00 -5°C° 0.1 mm 3 mps 687 mmHg 94%
10:00 -5°C° 0.1 mm 3 mps 688 mmHg 93%
11:00 -4°C° 0.1 mm 3 mps 688 mmHg 92%
12:00 -2°C° 0.1 mm 3 mps 688 mmHg 91%
13:00 -2°C° 0.1 mm 3 mps 688 mmHg 90%
14:00 -2°C° 0 mm 3 mps 687 mmHg 90%
15:00 -2°C° 0 mm 2 mps 687 mmHg 91%
16:00 0°C° 0 mm 1 mps 687 mmHg 92%
17:00 -1°C° 0 mm 1 mps 687 mmHg 91%
18:00 -1°C° 0 mm 1 mps 687 mmHg 91%
19:00 -2°C° 0 mm 1 mps 687 mmHg 90%
20:00 -2°C° 0 mm 1 mps 687 mmHg 90%
21:00 -2°C° 0 mm 1 mps 687 mmHg 89%
22:00 -2°C° 0 mm 1 mps 687 mmHg 89%
23:00 -4°C° 0.2 mm 2 mps 687 mmHg 91%

27 January, Wednesday

Time Temperature Precipitation Wind Pressure Humidity
00:00 -4°C° 0.2 mm 2 mps 686 mmHg 93%
01:00 -3°C° 0.2 mm 2 mps 686 mmHg 95%
02:00 -3°C° 0.2 mm 2 mps 685 mmHg 95%
03:00 -2°C° 0.2 mm 3 mps 685 mmHg 95%
04:00 -2°C° 0.2 mm 3 mps 684 mmHg 95%
05:00 -2°C° 0.6 mm 4 mps 684 mmHg 96%
06:00 -2°C° 0.6 mm 4 mps 685 mmHg 97%
07:00 -1°C° 0.6 mm 5 mps 685 mmHg 98%
08:00 -1°C° 0.8 mm 4 mps 685 mmHg 98%
09:00 -1°C° 0.8 mm 4 mps 686 mmHg 98%
10:00 -1°C° 0.8 mm 4 mps 686 mmHg 98%
11:00 -1°C° 0.3 mm 4 mps 687 mmHg 97%
12:00 -1°C° 0.3 mm 4 mps 687 mmHg 96%
13:00 0°C° 0.3 mm 4 mps 687 mmHg 96%
14:00 +1°C° 0.2 mm 3 mps 688 mmHg 95%
15:00 +1°C° 0.2 mm 3 mps 688 mmHg 95%
16:00 +1°C° 0.2 mm 3 mps 688 mmHg 95%
17:00 +1°C° 0.1 mm 2 mps 689 mmHg 95%
18:00 +1°C° 0.1 mm 2 mps 689 mmHg 94%
19:00 -1°C° 0.1 mm 2 mps 690 mmHg 94%
20:00 -1°C° 0 mm 2 mps 690 mmHg 92%
21:00 -2°C° 0 mm 2 mps 690 mmHg 90%
22:00 -2°C° 0 mm 2 mps 690 mmHg 88%
23:00 -2°C° 0 mm 2 mps 689 mmHg 86%

28 January, Thursday

Time Temperature Precipitation Wind Pressure Humidity
00:00 -3°C° 0 mm 2 mps 689 mmHg 84%
01:00 -3°C° 0 mm 2 mps 688 mmHg 82%
02:00 -3°C° 0 mm 2 mps 688 mmHg 81%
03:00 0°C° 0 mm 1 mps 687 mmHg 80%
04:00 0°C° 0 mm 1 mps 687 mmHg 78%
05:00 -2°C° 0.2 mm 2 mps 687 mmHg 81%
06:00 -1°C° 0.2 mm 2 mps 687 mmHg 84%
07:00 -1°C° 0.2 mm 2 mps 686 mmHg 87%
08:00 +1°C° 0.4 mm 2 mps 686 mmHg 90%
09:00 +1°C° 0.4 mm 2 mps 686 mmHg 92%
10:00 +2°C° 0.4 mm 2 mps 686 mmHg 95%
11:00 +2°C° 0 mm 2 mps 686 mmHg 94%
12:00 +2°C° 0 mm 3 mps 686 mmHg 94%
13:00 +3°C° 0 mm 3 mps 685 mmHg 93%
14:00 +3°C° 0.2 mm 3 mps 685 mmHg 93%
15:00 +3°C° 0.2 mm 3 mps 685 mmHg 93%
16:00 +3°C° 0.2 mm 3 mps 684 mmHg 93%
17:00 +1°C° 1.3 mm 4 mps 684 mmHg 93%
18:00 +1°C° 1.3 mm 4 mps 685 mmHg 94%
19:00 0°C° 1.3 mm 5 mps 685 mmHg 94%
Show more